{"data":{"norad_id":56345,"epoch":"2026-09-20T22:00:03.000096Z","epoch_age_seconds":72786,"freshness":"FRESH","line1":"1 56345U 23058AE  26263.91670139  .00746864  00000+0  32597-1 0  9997","line2":"2 56345  97.2853 257.7783 0001646  83.6456   3.7599 15.19600083  5783","mean_motion":15.19600083,"eccentricity":0.0001646,"inclination_deg":97.2853,"raan_deg":257.7783,"arg_perigee_deg":83.6456,"mean_anomaly_deg":3.7599,"bstar":0.032597,"rev_number":578,"period_min":94.761774239782,"perigee_km":505.91504180628,"apogee_km":508.1816448213,"semimajor_km":6885.1853433138,"source":"CELESTRAK","updated_at":"2026-09-21T09:00:33.406113Z"}}